HULIANWANG DIGUI-110

Last updated on Mon Dec 15 2025 00:02:13 GMT+0000 (Coordinated Universal Time)

1 66920U 25285F 25348.33500235 .00000082 00000+0 14217-3 0 9995 2 66920 50.0097 110.7358 0005853 293.8936 66.1355 14.05851874 1136
UTC large
Height (km)
Speed (km/s)
/
Latitude / Longitude
Inclination (degrees)
Orbital Period (minutes)
Azimuth
Elevation
Range (km)
Doppler Factor

Next 0 passes for location: London (51.5072 / 0.1276)

Sorry there are no passes over London.